Time,TemperatureF,DewpointF,PressureIn,WindDirection,WindDirectionDegrees,WindSpeedMPH,WindSpeedGustMPH,Humidity,HourlyPrecipIn,Conditions,Clouds,dailyrainin,SoftwareType,DateUTC
2013-02-02 00:02:00,40.0,16.0,-100.00,West,270,11.0,20.0,37,-99.99,,,0.00,,2013-02-02 07:02:00,
2013-02-02 00:11:00,39.0,16.0,-100.00,SW,235,10.0,17.0,39,-99.99,,,0.00,,2013-02-02 07:11:00,
2013-02-02 00:21:00,39.0,16.0,-100.00,SW,235,10.0,17.0,39,-99.99,,,0.00,,2013-02-02 07:21:00,
2013-02-02 00:31:00,39.0,16.0,-100.00,SW,235,10.0,17.0,39,-99.99,,,0.00,,2013-02-02 07:31:00,
2013-02-02 00:41:00,39.0,16.0,-100.00,SW,235,10.0,17.0,39,-99.99,,,0.00,,2013-02-02 07:41:00,
2013-02-02 00:51:00,38.0,16.0,-100.00,SW,235,11.0,15.0,40,-99.99,,,0.00,,2013-02-02 07:51:00,
2013-02-02 01:01:00,38.0,16.0,-100.00,SW,235,11.0,15.0,40,-99.99,,,0.00,,2013-02-02 08:01:00,
2013-02-02 01:11:00,38.0,16.0,-100.00,WSW,245,8.0,17.0,40,-99.99,,,0.00,,2013-02-02 08:11:00,
2013-02-02 01:21:00,38.0,16.0,-100.00,WSW,245,8.0,17.0,40,-99.99,,,0.00,,2013-02-02 08:21:00,
2013-02-02 01:31:00,38.0,16.0,-100.00,WSW,245,8.0,17.0,40,-99.99,,,0.00,,2013-02-02 08:31:00,
2013-02-02 01:41:00,38.0,16.0,-100.00,WSW,245,8.0,17.0,40,-99.99,,,0.00,,2013-02-02 08:41:00,
2013-02-02 01:52:00,36.0,15.0,-100.00,West,260,7.0,12.0,42,-99.99,,,0.00,,2013-02-02 08:52:00,
2013-02-02 02:01:00,36.0,15.0,-100.00,West,260,7.0,12.0,42,-99.99,,,0.00,,2013-02-02 09:01:00,
2013-02-02 02:11:00,36.0,15.0,-100.00,SW,225,8.0,16.0,42,-99.99,,,0.00,,2013-02-02 09:11:00,
2013-02-02 02:22:00,36.0,15.0,-100.00,SW,225,8.0,16.0,42,-99.99,,,0.00,,2013-02-02 09:22:00,
2013-02-02 02:31:00,36.0,15.0,-100.00,SW,225,8.0,16.0,42,-99.99,,,0.00,,2013-02-02 09:31:00,
2013-02-02 02:41:00,36.0,15.0,-100.00,SW,225,8.0,16.0,42,-99.99,,,0.00,,2013-02-02 09:41:00,
2013-02-02 02:52:00,33.0,14.0,-100.00,WSW,250,11.0,17.0,46,-99.99,,,0.00,,2013-02-02 09:52:00,
2013-02-02 03:01:00,33.0,14.0,-100.00,WSW,250,11.0,17.0,46,-99.99,,,0.00,,2013-02-02 10:01:00,
2013-02-02 03:11:00,31.0,15.0,-100.00,West,270,10.0,17.0,51,-99.99,,,0.00,,2013-02-02 10:11:00,
2013-02-02 03:21:00,31.0,15.0,-100.00,West,270,10.0,17.0,51,-99.99,,,0.00,,2013-02-02 10:21:00,
2013-02-02 03:31:00,31.0,15.0,-100.00,West,270,10.0,17.0,51,-99.99,,,0.00,,2013-02-02 10:31:00,
2013-02-02 03:41:00,31.0,15.0,-100.00,West,270,10.0,17.0,51,-99.99,,,0.00,,2013-02-02 10:41:00,
2013-02-02 03:51:00,29.0,15.0,-100.00,West,270,8.0,12.0,55,-99.99,,,0.00,,2013-02-02 10:51:00,
2013-02-02 04:01:00,29.0,15.0,-100.00,West,270,8.0,12.0,55,-99.99,,,0.00,,2013-02-02 11:01:00,
2013-02-02 04:11:00,29.0,16.0,-100.00,West,265,6.0,11.0,58,-99.99,,,0.00,,2013-02-02 11:11:00,
2013-02-02 04:21:00,29.0,16.0,-100.00,West,265,6.0,11.0,58,-99.99,,,0.00,,2013-02-02 11:21:00,
2013-02-02 04:31:00,29.0,16.0,-100.00,West,265,6.0,11.0,58,-99.99,,,0.00,,2013-02-02 11:31:00,
2013-02-02 04:41:00,29.0,16.0,-100.00,West,265,6.0,11.0,58,-99.99,,,0.00,,2013-02-02 11:41:00,
2013-02-02 04:52:00,28.0,16.0,-100.00,WSW,240,7.0,12.0,61,-99.99,,,0.00,,2013-02-02 11:52:00,
2013-02-02 05:01:00,28.0,16.0,-100.00,WSW,240,7.0,12.0,61,-99.99,,,0.00,,2013-02-02 12:01:00,
2013-02-02 05:11:00,28.0,17.0,-100.00,WSW,240,6.0,9.0,62,-99.99,,,0.00,,2013-02-02 12:11:00,
2013-02-02 05:22:00,28.0,17.0,-100.00,WSW,240,6.0,9.0,62,-99.99,,,0.00,,2013-02-02 12:22:00,
2013-02-02 05:32:00,28.0,17.0,-100.00,WSW,240,6.0,9.0,62,-99.99,,,0.00,,2013-02-02 12:32:00,
2013-02-02 05:42:00,28.0,17.0,-100.00,WSW,240,6.0,9.0,62,-99.99,,,0.00,,2013-02-02 12:42:00,
2013-02-02 05:52:00,28.0,16.0,-100.00,SW,235,6.0,10.0,61,-99.99,,,0.00,,2013-02-02 12:52:00,
2013-02-02 06:02:00,28.0,16.0,-100.00,SW,235,6.0,10.0,61,-99.99,,,0.00,,2013-02-02 13:02:00,
2013-02-02 06:11:00,26.0,16.0,-100.00,WSW,245,0.0,3.0,66,-99.99,,,0.00,,2013-02-02 13:11:00,
2013-02-02 06:21:00,26.0,16.0,-100.00,WSW,245,0.0,3.0,66,-99.99,,,0.00,,2013-02-02 13:21:00,
2013-02-02 06:32:00,26.0,16.0,-100.00,WSW,245,0.0,3.0,66,-99.99,,,0.00,,2013-02-02 13:32:00,
2013-02-02 06:42:00,26.0,16.0,-100.00,WSW,245,0.0,3.0,66,-99.99,,,0.00,,2013-02-02 13:42:00,
2013-02-02 06:51:00,26.0,17.0,-100.00,West,260,0.0,3.0,68,-99.99,,,0.00,,2013-02-02 13:51:00,
2013-02-02 07:02:00,26.0,17.0,-100.00,West,260,0.0,3.0,68,-99.99,,,0.00,,2013-02-02 14:02:00,
2013-02-02 07:11:00,25.0,17.0,-100.00,North,-999,0.0,0.0,70,-99.99,,,0.00,,2013-02-02 14:11:00,
2013-02-02 07:22:00,25.0,17.0,-100.00,North,-999,0.0,0.0,70,-99.99,,,0.00,,2013-02-02 14:22:00,
2013-02-02 07:32:00,25.0,17.0,-100.00,North,-999,0.0,0.0,70,-99.99,,,0.00,,2013-02-02 14:32:00,
2013-02-02 07:42:00,25.0,17.0,-100.00,North,-999,0.0,0.0,70,-99.99,,,0.00,,2013-02-02 14:42:00,
2013-02-02 07:52:00,25.0,17.0,-100.00,SW,235,0.0,3.0,70,-99.99,,,0.00,,2013-02-02 14:52:00,
2013-02-02 08:03:00,25.0,17.0,-100.00,SW,235,0.0,3.0,70,-99.99,,,0.00,,2013-02-02 15:03:00,
2013-02-02 08:12:00,25.0,17.0,-100.00,WSW,250,0.0,1.0,71,-99.99,,,0.00,,2013-02-02 15:12:00,
2013-02-02 08:21:00,25.0,17.0,-100.00,WSW,250,0.0,1.0,71,-99.99,,,0.00,,2013-02-02 15:21:00,
2013-02-02 08:32:00,25.0,17.0,-100.00,WSW,250,0.0,1.0,71,-99.99,,,0.00,,2013-02-02 15:32:00,
2013-02-02 08:42:00,25.0,17.0,-100.00,WSW,250,0.0,1.0,71,-99.99,,,0.00,,2013-02-02 15:42:00,
2013-02-02 08:52:00,25.0,18.0,-100.00,WSW,245,0.0,15.0,73,-99.99,,,0.00,,2013-02-02 15:52:00,
2013-02-02 09:02:00,25.0,18.0,-100.00,WSW,245,0.0,15.0,73,-99.99,,,0.00,,2013-02-02 16:02:00,
2013-02-02 09:11:00,25.0,18.0,-100.00,WSW,245,0.0,15.0,73,-99.99,,,0.00,,2013-02-02 16:11:00,
2013-02-02 09:52:00,30.0,19.0,-100.00,WSW,250,10.0,17.0,63,-99.99,,,0.00,,2013-02-02 16:52:00,
2013-02-02 10:02:00,30.0,19.0,-100.00,WSW,250,10.0,17.0,63,-99.99,,,0.00,,2013-02-02 17:02:00,
2013-02-02 10:11:00,33.0,19.0,-100.00,WSW,245,11.0,17.0,55,-99.99,,,0.00,,2013-02-02 17:11:00,
2013-02-02 10:22:00,33.0,19.0,-100.00,WSW,245,11.0,17.0,55,-99.99,,,0.00,,2013-02-02 17:22:00,
2013-02-02 10:32:00,33.0,19.0,-100.00,WSW,245,11.0,17.0,55,-99.99,,,0.00,,2013-02-02 17:32:00,
2013-02-02 10:41:00,33.0,19.0,-100.00,WSW,245,11.0,17.0,55,-99.99,,,0.00,,2013-02-02 17:41:00,